Location: Newark
(44.6394°N, 22.2943°E)
Time: 00:09:59
(UTC+00:00)

X-37B - Visible Passes

Search period start: 21 January 2022 00:00
Search period end: 31 January 2022 00:00
Orbit: 334 x 337 km, 45.0° (Epoch: 11 January)

Date Brightness Start Highest point End Pass type
(mag) Time Alt. Az. Time Alt. Az. Time Alt. Az.
26 Jan 2.5 17:18:44 10° SSW 17:20:01 18° S 17:20:01 18° S visible
27 Jan 2.6 17:38:32 10° SW 17:39:47 22° SW 17:39:47 22° SW visible
28 Jan 2.1 16:24:11 10° SSW 16:26:26 21° SSE 16:28:15 13° ESE visible
28 Jan 3.5 17:58:49 10° WSW 17:59:29 16° WSW 17:59:29 16° WSW visible
29 Jan 0.9 16:43:59 10° SW 16:46:42 43° SSE 16:47:54 26° ESE visible
30 Jan 0.2 17:04:15 10° WSW 17:07:05 78° SSE 17:07:32 58° E visible
